Find Starlink 38285

NORAD ID: 100448 Int'l Des: 2026-193 Owner: SPXS Country: US Constellation: starlink operational

現在のビュー

3D地球を読み込み中...

About Starlink 38285

Starlink 38285 (NORAD 100448) is a starlink constellation satellite launched Aug 22, 2026 by SPXS of US. with a mass of 575.00 kg.

次回通過

Passes for default location (London). Set your location on the main map for personalized predictions.

高度履歴

Loading altitude history...

軌道要素

1 A0448U 26193R 26263.59628697 -.01182213 00000-0 -24693-1 0 9993
2 A0448 70.0004 74.3025 0003917 285.1095 74.9656 15.48002927 5752
Epoch: Sep 20, 2026 • Age: 7 hours

現在のステータス

高度 427.6 km
遠地点 / 近地点 N/A
速度 7.66 km/s
衛星直下点 10.39°N, 68.71°W
打ち上げ日 Aug 22, 2026
運用期間 29 days
タイプ internet

技術仕様

分類 Payload
質量 575.00 kg
乾燥質量 530.00 kg
長さ 0.30 m
スパン 29.00 m
形状 ? Box + pan
製造者 SPXS
バスタイプ Starlink V2MO
フェーズステータス In Orbit
所有者/国 SPXS/US

Most Searched